Year,Month,Day,Hour,Minute,Value (Times are PST for temperature in C)
2014,08,27,00,00,20.90
2014,08,27,00,01,20.90
2014,08,27,00,02,20.90
2014,08,27,00,03,20.80
2014,08,27,00,04,20.80
2014,08,27,00,05,20.80
2014,08,27,00,06,20.80
2014,08,27,00,07,20.80
2014,08,27,00,08,20.80
2014,08,27,00,09,20.80
2014,08,27,00,10,20.80
2014,08,27,00,11,20.80
2014,08,27,00,12,20.80
2014,08,27,00,13,20.80
2014,08,27,00,14,20.80
2014,08,27,00,15,20.80
2014,08,27,00,16,20.80
2014,08,27,00,17,20.80
2014,08,27,00,18,20.80
2014,08,27,00,19,20.70
2014,08,27,00,20,20.70
2014,08,27,00,21,20.70
2014,08,27,00,22,20.70
2014,08,27,00,23,20.70
2014,08,27,00,24,20.70
2014,08,27,00,25,20.70
2014,08,27,00,26,20.70
2014,08,27,00,27,20.70
2014,08,27,00,28,20.70
2014,08,27,00,29,20.70
2014,08,27,00,30,20.70
2014,08,27,00,31,20.70
2014,08,27,00,32,20.70
2014,08,27,00,33,20.70
2014,08,27,00,34,20.70
2014,08,27,00,35,20.70
2014,08,27,00,36,20.70
2014,08,27,00,37,20.70
2014,08,27,00,38,20.70
2014,08,27,00,39,20.70
2014,08,27,00,40,20.70
2014,08,27,00,41,20.70
2014,08,27,00,42,20.70
2014,08,27,00,43,20.70
2014,08,27,00,44,20.70
2014,08,27,00,45,20.70
2014,08,27,00,46,20.70
2014,08,27,00,47,20.70
2014,08,27,00,48,20.60
2014,08,27,00,49,20.60
2014,08,27,00,50,20.60
2014,08,27,00,51,20.60
2014,08,27,00,52,20.60
2014,08,27,00,53,20.60
2014,08,27,00,54,20.60
2014,08,27,00,55,20.60
2014,08,27,00,56,20.60
2014,08,27,00,57,20.70
2014,08,27,00,58,20.70
2014,08,27,00,59,20.70
2014,08,27,01,00,20.70
2014,08,27,01,01,20.70
2014,08,27,01,02,20.70
2014,08,27,01,03,20.70
2014,08,27,01,04,20.70
2014,08,27,01,05,20.70
2014,08,27,01,06,20.80
2014,08,27,01,07,20.80
2014,08,27,01,08,20.80
2014,08,27,01,09,20.80
2014,08,27,01,10,20.80
2014,08,27,01,11,20.80
2014,08,27,01,12,20.70
2014,08,27,01,13,20.70
2014,08,27,01,14,20.70
2014,08,27,01,15,20.70
2014,08,27,01,16,20.70
2014,08,27,01,17,20.70
2014,08,27,01,18,20.70
2014,08,27,01,19,20.70
2014,08,27,01,20,20.70
2014,08,27,01,21,20.70
2014,08,27,01,22,20.70
2014,08,27,01,23,20.70
2014,08,27,01,24,20.70
2014,08,27,01,25,20.80
2014,08,27,01,26,20.80
2014,08,27,01,27,20.80
2014,08,27,01,28,20.80
2014,08,27,01,29,20.90
2014,08,27,01,30,20.90
2014,08,27,01,31,20.90
2014,08,27,01,32,20.80
2014,08,27,01,33,20.80
2014,08,27,01,34,20.80
2014,08,27,01,35,20.70
2014,08,27,01,36,20.60
2014,08,27,01,37,20.60
2014,08,27,01,38,20.50
2014,08,27,01,39,20.50
2014,08,27,01,40,20.50
2014,08,27,01,41,20.40
2014,08,27,01,42,20.30
2014,08,27,01,43,20.30
2014,08,27,01,44,20.20
2014,08,27,01,45,20.20
2014,08,27,01,46,20.20
2014,08,27,01,47,20.10
2014,08,27,01,48,20.10
2014,08,27,01,49,20.00
2014,08,27,01,50,19.90
2014,08,27,01,51,19.90
2014,08,27,01,52,19.90
2014,08,27,01,53,19.80
2014,08,27,01,54,19.70
2014,08,27,01,55,19.70
2014,08,27,01,56,19.60
2014,08,27,01,57,19.50
2014,08,27,01,58,19.50
2014,08,27,01,59,19.40
2014,08,27,02,00,19.40
2014,08,27,02,01,19.30
2014,08,27,02,02,19.30
2014,08,27,02,03,19.20
2014,08,27,02,04,19.10
2014,08,27,02,05,19.10
2014,08,27,02,06,19.10
2014,08,27,02,07,19.00
2014,08,27,02,08,18.90
2014,08,27,02,09,18.90
2014,08,27,02,10,18.90
2014,08,27,02,11,18.90
2014,08,27,02,12,18.80
2014,08,27,02,13,18.80
2014,08,27,02,14,18.70
2014,08,27,02,15,18.70
2014,08,27,02,16,18.60
2014,08,27,02,17,18.60
2014,08,27,02,18,18.50
2014,08,27,02,19,18.50
2014,08,27,02,20,18.40
2014,08,27,02,21,18.40
2014,08,27,02,22,18.40
2014,08,27,02,23,18.30
2014,08,27,02,24,18.30
2014,08,27,02,25,18.30
2014,08,27,02,26,18.20
2014,08,27,02,27,18.20
2014,08,27,02,28,18.20
2014,08,27,02,29,18.20
2014,08,27,02,30,18.20
2014,08,27,02,31,18.20
2014,08,27,02,32,18.10
2014,08,27,02,33,18.10
2014,08,27,02,34,18.10
2014,08,27,02,35,18.00
2014,08,27,02,36,17.90
2014,08,27,02,37,17.90
2014,08,27,02,38,17.90
2014,08,27,02,39,17.90
2014,08,27,02,40,17.90
2014,08,27,02,41,17.90
2014,08,27,02,42,17.80
2014,08,27,02,43,17.80
2014,08,27,02,44,17.80
2014,08,27,02,45,17.70
2014,08,27,02,46,17.70
2014,08,27,02,47,17.70
2014,08,27,02,48,17.70
2014,08,27,02,49,17.60
2014,08,27,02,50,17.60
2014,08,27,02,51,17.60
2014,08,27,02,52,17.60
2014,08,27,02,53,17.50
2014,08,27,02,54,17.50
2014,08,27,02,55,17.50
2014,08,27,02,56,17.50
2014,08,27,02,57,17.40
2014,08,27,02,58,17.40
2014,08,27,02,59,17.40
2014,08,27,03,00,17.40
2014,08,27,03,01,17.30
2014,08,27,03,02,17.30
2014,08,27,03,03,17.30
2014,08,27,03,04,17.30
2014,08,27,03,05,17.30
2014,08,27,03,06,17.30
2014,08,27,03,07,17.30
2014,08,27,03,08,17.30
2014,08,27,03,09,17.20
2014,08,27,03,10,17.20
2014,08,27,03,11,17.20
2014,08,27,03,12,17.20
2014,08,27,03,13,17.10
2014,08,27,03,14,17.10
2014,08,27,03,15,17.10
2014,08,27,03,16,17.10
2014,08,27,03,17,17.00
2014,08,27,03,18,17.00
2014,08,27,03,19,17.00
2014,08,27,03,20,17.00
2014,08,27,03,21,17.00
2014,08,27,03,22,16.90
2014,08,27,03,23,16.90
2014,08,27,03,24,16.90
2014,08,27,03,25,16.90
2014,08,27,03,26,16.90
2014,08,27,03,27,16.90
2014,08,27,03,28,16.80
2014,08,27,03,29,16.80
2014,08,27,03,30,16.80
2014,08,27,03,31,16.80
2014,08,27,03,32,16.80
2014,08,27,03,33,16.80
2014,08,27,03,34,16.70
2014,08,27,03,35,16.70
2014,08,27,03,36,16.70
2014,08,27,03,37,16.70
2014,08,27,03,38,16.70
2014,08,27,03,39,16.70
2014,08,27,03,40,16.70
2014,08,27,03,41,16.70
2014,08,27,03,42,16.70
2014,08,27,03,43,16.70
2014,08,27,03,44,16.70
2014,08,27,03,45,16.70
2014,08,27,03,46,16.70
2014,08,27,03,47,16.60
2014,08,27,03,48,16.60
2014,08,27,03,49,16.60
2014,08,27,03,50,16.60
2014,08,27,03,51,16.60
2014,08,27,03,52,16.60
2014,08,27,03,53,16.60
2014,08,27,03,54,16.50
2014,08,27,03,55,16.40
2014,08,27,03,56,16.40
2014,08,27,03,57,16.40
2014,08,27,03,58,16.40
2014,08,27,03,59,16.40
2014,08,27,04,00,16.40
2014,08,27,04,01,16.40
2014,08,27,04,02,16.40
2014,08,27,04,03,16.40
2014,08,27,04,04,16.40
2014,08,27,04,05,16.40
2014,08,27,04,06,16.40
2014,08,27,04,07,16.40
2014,08,27,04,08,16.40
2014,08,27,04,09,16.40
2014,08,27,04,10,16.40
2014,08,27,04,11,16.40
2014,08,27,04,12,16.40
2014,08,27,04,13,16.40
2014,08,27,04,14,16.30
2014,08,27,04,15,16.30
2014,08,27,04,16,16.30
2014,08,27,04,17,16.30
2014,08,27,04,18,16.30
2014,08,27,04,19,16.30
2014,08,27,04,20,16.30
2014,08,27,04,21,16.20
2014,08,27,04,22,16.20
2014,08,27,04,23,16.20
2014,08,27,04,24,16.20
2014,08,27,04,25,16.20
2014,08,27,04,26,16.20
2014,08,27,04,27,16.20
2014,08,27,04,28,16.20
2014,08,27,04,29,16.20
2014,08,27,04,30,16.10
2014,08,27,04,31,16.10
2014,08,27,04,32,16.10
2014,08,27,04,33,16.10
2014,08,27,04,34,16.10
2014,08,27,04,35,16.10
2014,08,27,04,36,16.10
2014,08,27,04,37,16.10
2014,08,27,04,38,16.10
2014,08,27,04,39,16.10
2014,08,27,04,40,16.10
2014,08,27,04,41,16.10
2014,08,27,04,42,16.10
2014,08,27,04,43,16.10
2014,08,27,04,44,16.00
2014,08,27,04,45,15.90
2014,08,27,04,46,15.90
2014,08,27,04,47,15.90
2014,08,27,04,48,15.90
2014,08,27,04,49,15.90
2014,08,27,04,50,15.90
2014,08,27,04,51,15.90
2014,08,27,04,52,15.90
2014,08,27,04,53,15.90
2014,08,27,04,54,15.90
2014,08,27,04,55,15.80
2014,08,27,04,56,15.80
2014,08,27,04,57,15.80
2014,08,27,04,58,15.80
2014,08,27,04,59,15.80
2014,08,27,05,00,15.80
2014,08,27,05,01,15.80
2014,08,27,05,02,15.80
2014,08,27,05,03,15.80
2014,08,27,05,04,15.80
2014,08,27,05,05,15.80
2014,08,27,05,06,15.80
2014,08,27,05,07,15.70
2014,08,27,05,08,15.70
2014,08,27,05,09,15.70
2014,08,27,05,10,15.70
2014,08,27,05,11,15.70
2014,08,27,05,12,15.70
2014,08,27,05,13,15.60
2014,08,27,05,14,15.60
2014,08,27,05,15,15.60
2014,08,27,05,16,15.60
2014,08,27,05,17,15.60
2014,08,27,05,18,15.60
2014,08,27,05,19,15.60
2014,08,27,05,20,15.60
2014,08,27,05,21,15.50
2014,08,27,05,22,15.50
2014,08,27,05,23,15.50
2014,08,27,05,24,15.50
2014,08,27,05,25,15.50
2014,08,27,05,26,15.50
2014,08,27,05,27,15.40
2014,08,27,05,28,15.40
2014,08,27,05,29,15.40
2014,08,27,05,30,15.40
2014,08,27,05,31,15.40
2014,08,27,05,32,15.30
2014,08,27,05,33,15.30
2014,08,27,05,34,15.30
2014,08,27,05,35,15.30
2014,08,27,05,36,15.30
2014,08,27,05,37,15.30
2014,08,27,05,38,15.30
2014,08,27,05,39,15.30
2014,08,27,05,40,15.30
2014,08,27,05,41,15.30
2014,08,27,05,42,15.30
2014,08,27,05,43,15.20
2014,08,27,05,44,15.20
2014,08,27,05,45,15.20
2014,08,27,05,46,15.20
2014,08,27,05,47,15.20
2014,08,27,05,48,15.10
2014,08,27,05,49,15.10
2014,08,27,05,50,15.10
2014,08,27,05,51,15.10
2014,08,27,05,52,15.10
2014,08,27,05,53,15.10
2014,08,27,05,54,15.10
2014,08,27,05,55,15.00
2014,08,27,05,56,15.00
2014,08,27,05,57,15.00
2014,08,27,05,58,15.00
2014,08,27,05,59,15.00
2014,08,27,06,00,15.00
2014,08,27,06,01,15.00
2014,08,27,06,02,15.00
2014,08,27,06,03,14.90
2014,08,27,06,04,14.90
2014,08,27,06,05,14.90
2014,08,27,06,06,14.90
2014,08,27,06,07,14.90
2014,08,27,06,08,14.90
2014,08,27,06,09,14.90
2014,08,27,06,10,14.90
2014,08,27,06,11,14.90
2014,08,27,06,12,14.90
2014,08,27,06,13,14.90
2014,08,27,06,14,14.90
2014,08,27,06,15,14.90
2014,08,27,06,16,14.90
2014,08,27,06,17,14.80
2014,08,27,06,18,14.80
2014,08,27,06,19,14.80
2014,08,27,06,20,14.80
2014,08,27,06,21,14.80
2014,08,27,06,22,14.80
2014,08,27,06,23,14.80
2014,08,27,06,24,14.80
2014,08,27,06,25,14.80
2014,08,27,06,26,14.80
2014,08,27,06,27,14.80
2014,08,27,06,28,14.80
2014,08,27,06,29,14.80
2014,08,27,06,30,14.80
2014,08,27,06,31,14.80
2014,08,27,06,32,14.80
2014,08,27,06,33,14.80
2014,08,27,06,34,14.80
2014,08,27,06,35,14.80
2014,08,27,06,36,14.80
2014,08,27,06,37,14.80
2014,08,27,06,38,14.80
2014,08,27,06,39,14.80
2014,08,27,06,40,14.80
2014,08,27,06,41,14.80
2014,08,27,06,42,14.80
2014,08,27,06,43,14.80
2014,08,27,06,44,14.80
2014,08,27,06,45,14.80
2014,08,27,06,46,14.80
2014,08,27,06,47,14.80
2014,08,27,06,48,14.80
2014,08,27,06,49,14.80
2014,08,27,06,50,14.80
2014,08,27,06,51,14.80
2014,08,27,06,52,14.80
2014,08,27,06,53,14.80
2014,08,27,06,54,14.80
2014,08,27,06,55,14.80
2014,08,27,06,56,14.80
2014,08,27,06,57,14.80
2014,08,27,06,58,14.80
2014,08,27,06,59,14.80
2014,08,27,07,00,14.90
2014,08,27,07,01,14.90
2014,08,27,07,02,14.90
2014,08,27,07,03,14.90
2014,08,27,07,04,15.00
2014,08,27,07,05,15.00
2014,08,27,07,06,15.00
2014,08,27,07,07,15.00
2014,08,27,07,08,15.10
2014,08,27,07,09,15.10
2014,08,27,07,10,15.20
2014,08,27,07,11,15.20
2014,08,27,07,12,15.30
2014,08,27,07,13,15.40
2014,08,27,07,14,15.40
2014,08,27,07,15,15.50
2014,08,27,07,16,15.50
2014,08,27,07,17,15.60
2014,08,27,07,18,15.70
2014,08,27,07,19,15.70
2014,08,27,07,20,15.80
2014,08,27,07,21,15.80
2014,08,27,07,22,15.90
2014,08,27,07,23,15.90
2014,08,27,07,24,16.00
2014,08,27,07,25,16.10
2014,08,27,07,26,16.10
2014,08,27,07,27,16.10
2014,08,27,07,28,16.10
2014,08,27,07,29,16.20
2014,08,27,07,30,16.20
2014,08,27,07,31,16.30
2014,08,27,07,32,16.30
2014,08,27,07,33,16.40
2014,08,27,07,34,16.40
2014,08,27,07,35,16.40
2014,08,27,07,36,16.50
2014,08,27,07,37,16.60
2014,08,27,07,38,16.70
2014,08,27,07,39,16.70
2014,08,27,07,40,16.80
2014,08,27,07,41,16.80
2014,08,27,07,42,16.90
2014,08,27,07,43,17.00
2014,08,27,07,44,17.10
2014,08,27,07,45,17.20
2014,08,27,07,46,17.30
2014,08,27,07,47,17.40
2014,08,27,07,48,17.50
2014,08,27,07,49,17.60
2014,08,27,07,50,17.70
2014,08,27,07,51,17.80
2014,08,27,07,52,17.90
2014,08,27,07,53,18.00
2014,08,27,07,54,18.10
2014,08,27,07,55,18.20
2014,08,27,07,56,18.30
2014,08,27,07,57,18.40
2014,08,27,07,58,18.50
2014,08,27,07,59,18.60
2014,08,27,08,00,18.70
2014,08,27,08,01,18.80
2014,08,27,08,02,18.90
2014,08,27,08,03,19.00
2014,08,27,08,04,19.10
2014,08,27,08,05,19.30
2014,08,27,08,06,19.40
2014,08,27,08,07,19.60
2014,08,27,08,08,19.70
2014,08,27,08,09,19.90
2014,08,27,08,10,19.90
2014,08,27,08,11,20.00
2014,08,27,08,12,20.10
2014,08,27,08,13,20.20
2014,08,27,08,14,20.20
2014,08,27,08,15,20.20
2014,08,27,08,16,20.20
2014,08,27,08,17,20.30
2014,08,27,08,18,20.30
2014,08,27,08,19,20.30
2014,08,27,08,20,20.40
2014,08,27,08,21,20.30
2014,08,27,08,22,20.30
2014,08,27,08,23,20.30
2014,08,27,08,24,20.30
2014,08,27,08,25,20.30
2014,08,27,08,26,20.30
2014,08,27,08,27,20.20
2014,08,27,08,28,20.20
2014,08,27,08,29,20.20
2014,08,27,08,30,20.20
2014,08,27,08,31,20.10
2014,08,27,08,32,20.00
2014,08,27,08,33,19.90
2014,08,27,08,34,19.90
2014,08,27,08,35,19.90
2014,08,27,08,36,19.80
2014,08,27,08,37,19.80
2014,08,27,08,38,19.90
2014,08,27,08,39,19.90
2014,08,27,08,40,19.90
2014,08,27,08,41,19.90
2014,08,27,08,42,19.90
2014,08,27,08,43,19.90
2014,08,27,08,44,20.10
2014,08,27,08,45,20.10
2014,08,27,08,46,20.20
2014,08,27,08,47,20.20
2014,08,27,08,48,20.20
2014,08,27,08,49,20.20
2014,08,27,08,50,20.20
2014,08,27,08,51,20.20
2014,08,27,08,52,20.20
2014,08,27,08,53,20.20
2014,08,27,08,54,20.20
2014,08,27,08,55,20.20
2014,08,27,08,56,20.20
2014,08,27,08,57,20.20
2014,08,27,08,58,20.30
2014,08,27,08,59,20.40
2014,08,27,09,00,20.50
2014,08,27,09,01,20.50
2014,08,27,09,02,20.60
2014,08,27,09,03,20.70
2014,08,27,09,04,20.80
2014,08,27,09,05,20.90
2014,08,27,09,06,21.00
2014,08,27,09,07,21.00
2014,08,27,09,08,21.00
2014,08,27,09,09,21.00
2014,08,27,09,10,20.90
2014,08,27,09,11,20.90
2014,08,27,09,12,20.90
2014,08,27,09,13,20.90
2014,08,27,09,14,21.00
2014,08,27,09,15,21.00
2014,08,27,09,16,20.90
2014,08,27,09,17,20.90
2014,08,27,09,18,20.80
2014,08,27,09,19,20.70
2014,08,27,09,20,20.70
2014,08,27,09,21,20.70
2014,08,27,09,22,20.70
2014,08,27,09,23,20.70
2014,08,27,09,24,20.80
2014,08,27,09,25,20.80
2014,08,27,09,26,20.90
2014,08,27,09,27,20.90
2014,08,27,09,28,20.90
2014,08,27,09,29,20.80
2014,08,27,09,30,20.60
2014,08,27,09,31,20.50
2014,08,27,09,32,20.40
2014,08,27,09,33,20.40
2014,08,27,09,34,20.50
2014,08,27,09,35,20.50
2014,08,27,09,36,20.70
2014,08,27,09,37,20.80
2014,08,27,09,38,20.80
2014,08,27,09,39,20.90
2014,08,27,09,40,20.80
2014,08,27,09,41,20.80
2014,08,27,09,42,20.90
2014,08,27,09,43,21.00
2014,08,27,09,44,21.10
2014,08,27,09,45,21.20
2014,08,27,09,46,21.30
2014,08,27,09,47,21.50
2014,08,27,09,48,21.60
2014,08,27,09,49,21.60
2014,08,27,09,50,21.70
2014,08,27,09,51,21.70
2014,08,27,09,52,21.80
2014,08,27,09,53,21.80
2014,08,27,09,54,21.80
2014,08,27,09,55,21.70
2014,08,27,09,56,21.60
2014,08,27,09,57,21.60
2014,08,27,09,58,21.60
2014,08,27,09,59,21.70
2014,08,27,10,00,21.80
2014,08,27,10,01,21.90
2014,08,27,10,02,22.00
2014,08,27,10,03,22.10
2014,08,27,10,04,22.00
2014,08,27,10,05,22.00
2014,08,27,10,06,22.10
2014,08,27,10,07,22.20
2014,08,27,10,08,22.20
2014,08,27,10,09,22.30
2014,08,27,10,10,22.30
2014,08,27,10,11,22.30
2014,08,27,10,12,22.10
2014,08,27,10,13,22.00
2014,08,27,10,14,21.90
2014,08,27,10,15,21.70
2014,08,27,10,16,21.60
2014,08,27,10,17,21.60
2014,08,27,10,18,21.60
2014,08,27,10,19,21.60
2014,08,27,10,20,21.60
2014,08,27,10,21,21.60
2014,08,27,10,22,21.60
2014,08,27,10,23,21.70
2014,08,27,10,24,21.80
2014,08,27,10,25,21.80
2014,08,27,10,26,21.80
2014,08,27,10,27,21.80
2014,08,27,10,28,21.90
2014,08,27,10,29,22.00
2014,08,27,10,30,22.00
2014,08,27,10,31,22.10
2014,08,27,10,32,22.10
2014,08,27,10,33,22.10
2014,08,27,10,34,22.00
2014,08,27,10,35,22.00
2014,08,27,10,36,22.00
2014,08,27,10,37,22.00
2014,08,27,10,38,22.00
2014,08,27,10,39,22.10
2014,08,27,10,40,22.10
2014,08,27,10,41,22.10
2014,08,27,10,42,22.10
2014,08,27,10,43,22.20
2014,08,27,10,44,22.10
2014,08,27,10,45,22.00
2014,08,27,10,46,21.90
2014,08,27,10,47,21.80
2014,08,27,10,48,21.80
2014,08,27,10,49,21.80
2014,08,27,10,50,21.70
2014,08,27,10,51,21.70
2014,08,27,10,52,21.70
2014,08,27,10,53,21.70
2014,08,27,10,54,21.70
2014,08,27,10,55,21.90
2014,08,27,10,56,22.00
2014,08,27,10,57,22.10
2014,08,27,10,58,22.20
2014,08,27,10,59,22.30
2014,08,27,11,00,22.50
2014,08,27,11,01,22.70
2014,08,27,11,02,22.90
2014,08,27,11,03,23.00
2014,08,27,11,04,23.10
2014,08,27,11,05,23.30
2014,08,27,11,06,23.30
2014,08,27,11,07,23.20
2014,08,27,11,08,23.20
2014,08,27,11,09,23.20
2014,08,27,11,10,23.20
2014,08,27,11,11,23.30
2014,08,27,11,12,23.40
2014,08,27,11,13,23.60
2014,08,27,11,14,23.60
2014,08,27,11,15,23.50
2014,08,27,11,16,23.40
2014,08,27,11,17,23.40
2014,08,27,11,18,23.30
2014,08,27,11,19,23.30
2014,08,27,11,20,23.30
2014,08,27,11,21,23.20
2014,08,27,11,22,23.20
2014,08,27,11,23,23.10
2014,08,27,11,24,22.90
2014,08,27,11,25,22.80
2014,08,27,11,26,22.70
2014,08,27,11,27,22.60
2014,08,27,11,28,22.60
2014,08,27,11,29,22.60
2014,08,27,11,30,22.50
2014,08,27,11,31,22.50
2014,08,27,11,32,22.60
2014,08,27,11,33,22.60
2014,08,27,11,34,22.70
2014,08,27,11,35,22.70
2014,08,27,11,36,22.80
2014,08,27,11,37,22.90
2014,08,27,11,38,22.90
2014,08,27,11,39,22.90
2014,08,27,11,40,22.90
2014,08,27,11,41,22.90
2014,08,27,11,42,22.90
2014,08,27,11,43,23.00
2014,08,27,11,44,23.10
2014,08,27,11,45,23.20
2014,08,27,11,46,23.30
2014,08,27,11,47,23.50
2014,08,27,11,48,23.60
2014,08,27,11,49,23.70
2014,08,27,11,50,23.80
2014,08,27,11,51,23.90
2014,08,27,11,52,23.90
2014,08,27,11,53,23.90
2014,08,27,11,54,23.90
2014,08,27,11,55,24.10
2014,08,27,11,56,24.10
2014,08,27,11,57,24.20
2014,08,27,11,58,24.30
2014,08,27,11,59,24.30
2014,08,27,12,00,24.30
2014,08,27,12,01,24.40
2014,08,27,12,02,24.50
2014,08,27,12,03,24.50
2014,08,27,12,04,24.60
2014,08,27,12,05,24.70
2014,08,27,12,06,24.70
2014,08,27,12,07,24.50
2014,08,27,12,08,24.30
2014,08,27,12,09,24.20
2014,08,27,12,10,24.00
2014,08,27,12,11,23.90
2014,08,27,12,12,23.80
2014,08,27,12,13,23.70
2014,08,27,12,14,23.60
2014,08,27,12,15,23.50
2014,08,27,12,16,23.40
2014,08,27,12,17,23.40
2014,08,27,12,18,23.30
2014,08,27,12,19,23.30
2014,08,27,12,20,23.30
2014,08,27,12,21,23.40
2014,08,27,12,22,23.50
2014,08,27,12,23,23.50
2014,08,27,12,24,23.40
2014,08,27,12,25,23.30
2014,08,27,12,26,23.20
2014,08,27,12,27,23.30
2014,08,27,12,28,23.30
2014,08,27,12,29,23.30
2014,08,27,12,30,23.40
2014,08,27,12,31,23.40
2014,08,27,12,32,23.40
2014,08,27,12,33,23.30
2014,08,27,12,34,23.30
2014,08,27,12,35,23.30
2014,08,27,12,36,23.30
2014,08,27,12,37,23.40
2014,08,27,12,38,23.50
2014,08,27,12,39,23.60
2014,08,27,12,40,23.70
2014,08,27,12,41,23.80
2014,08,27,12,42,23.90
2014,08,27,12,43,23.90
2014,08,27,12,44,23.90
2014,08,27,12,45,23.80
2014,08,27,12,46,23.70
2014,08,27,12,47,23.70
2014,08,27,12,48,23.70
2014,08,27,12,49,23.70
2014,08,27,12,50,23.70
2014,08,27,12,51,23.70
2014,08,27,12,52,23.80
2014,08,27,12,53,23.80
2014,08,27,12,54,23.80
2014,08,27,12,55,23.70
2014,08,27,12,56,23.70
2014,08,27,12,57,23.70
2014,08,27,12,58,23.70
2014,08,27,12,59,23.60
2014,08,27,13,00,23.30
2014,08,27,13,01,23.20
2014,08,27,13,02,23.10
2014,08,27,13,03,23.00
2014,08,27,13,04,22.90
2014,08,27,13,05,22.90
2014,08,27,13,06,22.90
2014,08,27,13,07,22.90
2014,08,27,13,08,22.90
2014,08,27,13,09,22.90
2014,08,27,13,10,22.90
2014,08,27,13,11,22.90
2014,08,27,13,12,22.90
2014,08,27,13,13,23.10
2014,08,27,13,14,23.30
2014,08,27,13,15,23.50
2014,08,27,13,16,23.70
2014,08,27,13,17,23.90
2014,08,27,13,18,24.00
2014,08,27,13,19,24.10
2014,08,27,13,20,24.10
2014,08,27,13,21,24.00
2014,08,27,13,22,23.90
2014,08,27,13,23,23.90
2014,08,27,13,24,23.90
2014,08,27,13,25,23.90
2014,08,27,13,26,23.90
2014,08,27,13,27,23.90
2014,08,27,13,28,23.90
2014,08,27,13,29,23.80
2014,08,27,13,30,23.90
2014,08,27,13,31,23.90
2014,08,27,13,32,24.00
2014,08,27,13,33,23.90
2014,08,27,13,34,23.90
2014,08,27,13,35,23.90
2014,08,27,13,36,23.90
2014,08,27,13,37,23.90
2014,08,27,13,38,23.90
2014,08,27,13,39,23.90
2014,08,27,13,40,23.90
2014,08,27,13,41,23.90
2014,08,27,13,42,24.00
2014,08,27,13,43,23.90
2014,08,27,13,44,24.00
2014,08,27,13,45,24.10
2014,08,27,13,46,24.20
2014,08,27,13,47,24.30
2014,08,27,13,48,24.30
2014,08,27,13,49,24.30
2014,08,27,13,50,24.30
2014,08,27,13,51,24.30
2014,08,27,13,52,24.10
2014,08,27,13,53,24.00
2014,08,27,13,54,23.90
2014,08,27,13,55,23.70
2014,08,27,13,56,23.70
2014,08,27,13,57,23.60
2014,08,27,13,58,23.70
2014,08,27,13,59,23.80
2014,08,27,14,00,23.90
2014,08,27,14,01,24.10
2014,08,27,14,02,24.10
2014,08,27,14,03,24.30
2014,08,27,14,04,24.40
2014,08,27,14,05,24.40
2014,08,27,14,06,24.40
2014,08,27,14,07,24.40
2014,08,27,14,08,24.30
2014,08,27,14,09,24.40
2014,08,27,14,10,24.40
2014,08,27,14,11,24.50
2014,08,27,14,12,24.50
2014,08,27,14,13,24.60
2014,08,27,14,14,24.60
2014,08,27,14,15,24.70
2014,08,27,14,16,24.80
2014,08,27,14,17,24.90
2014,08,27,14,18,24.90
2014,08,27,14,19,25.00
2014,08,27,14,20,25.10
2014,08,27,14,21,25.20
2014,08,27,14,22,25.30
2014,08,27,14,23,25.30
2014,08,27,14,24,25.40
2014,08,27,14,25,25.50
2014,08,27,14,26,25.70
2014,08,27,14,27,25.90
2014,08,27,14,28,26.10
2014,08,27,14,29,26.20
2014,08,27,14,30,26.30
2014,08,27,14,31,26.40
2014,08,27,14,32,26.60
2014,08,27,14,33,26.60
2014,08,27,14,34,26.80
2014,08,27,14,35,26.90
2014,08,27,14,36,27.10
2014,08,27,14,37,27.20
2014,08,27,14,38,27.30
2014,08,27,14,39,27.30
2014,08,27,14,40,27.30
2014,08,27,14,41,27.40
2014,08,27,14,42,27.40
2014,08,27,14,43,27.50
2014,08,27,14,44,27.60
2014,08,27,14,45,27.50
2014,08,27,14,46,27.50
2014,08,27,14,47,27.60
2014,08,27,14,48,27.70
2014,08,27,14,49,27.80
2014,08,27,14,50,27.80
2014,08,27,14,51,27.60
2014,08,27,14,52,27.60
2014,08,27,14,53,27.60
2014,08,27,14,54,27.60
2014,08,27,14,55,27.50
2014,08,27,14,56,27.30
2014,08,27,14,57,27.00
2014,08,27,14,58,26.90
2014,08,27,14,59,26.90
2014,08,27,15,00,26.90
2014,08,27,15,01,27.10
2014,08,27,15,02,27.10
2014,08,27,15,03,27.20
2014,08,27,15,04,27.20
2014,08,27,15,05,27.30
2014,08,27,15,06,27.30
2014,08,27,15,07,27.30
2014,08,27,15,08,27.40
2014,08,27,15,09,27.40
2014,08,27,15,10,27.40
2014,08,27,15,11,27.40
2014,08,27,15,12,27.40
2014,08,27,15,13,27.40
2014,08,27,15,14,27.40
2014,08,27,15,15,27.40
2014,08,27,15,16,27.40
2014,08,27,15,17,27.30
2014,08,27,15,18,27.30
2014,08,27,15,19,27.10
2014,08,27,15,20,27.00
2014,08,27,15,21,26.90
2014,08,27,15,22,26.80
2014,08,27,15,23,26.80
2014,08,27,15,24,26.70
2014,08,27,15,25,26.80
2014,08,27,15,26,26.80
2014,08,27,15,27,27.00
2014,08,27,15,28,27.10
2014,08,27,15,29,27.20
2014,08,27,15,30,27.20
2014,08,27,15,31,27.30
2014,08,27,15,32,27.20
2014,08,27,15,33,27.10
2014,08,27,15,34,26.90
2014,08,27,15,35,26.80
2014,08,27,15,36,26.70
2014,08,27,15,37,26.60
2014,08,27,15,38,26.50
2014,08,27,15,39,26.30
2014,08,27,15,40,26.10
2014,08,27,15,41,26.00
2014,08,27,15,42,25.90
2014,08,27,15,43,25.90
2014,08,27,15,44,25.90
2014,08,27,15,45,25.90
2014,08,27,15,46,25.90
2014,08,27,15,47,25.90
2014,08,27,15,48,25.90
2014,08,27,15,49,25.70
2014,08,27,15,50,25.60
2014,08,27,15,51,25.50
2014,08,27,15,52,25.40
2014,08,27,15,53,25.30
2014,08,27,15,54,24.90
2014,08,27,15,55,24.50
2014,08,27,15,56,24.10
2014,08,27,15,57,23.70
2014,08,27,15,58,23.40
2014,08,27,15,59,23.20
2014,08,27,16,00,22.90
2014,08,27,16,01,22.70
2014,08,27,16,02,22.60
2014,08,27,16,03,22.40
2014,08,27,16,04,22.30
2014,08,27,16,05,22.10
2014,08,27,16,06,22.00
2014,08,27,16,07,21.80
2014,08,27,16,08,21.60
2014,08,27,16,09,21.50
2014,08,27,16,10,21.30
2014,08,27,16,11,21.20
2014,08,27,16,12,21.00
2014,08,27,16,13,21.00
2014,08,27,16,14,20.90
2014,08,27,16,15,20.80
2014,08,27,16,16,20.80
2014,08,27,16,17,20.70
2014,08,27,16,18,20.70
2014,08,27,16,19,20.80
2014,08,27,16,20,20.70
2014,08,27,16,21,20.80
2014,08,27,16,22,20.90
2014,08,27,16,23,21.00
2014,08,27,16,24,21.10
2014,08,27,16,25,21.30
2014,08,27,16,26,21.30
2014,08,27,16,27,21.40
2014,08,27,16,28,21.60
2014,08,27,16,29,21.80
2014,08,27,16,30,22.00
2014,08,27,16,31,22.30
2014,08,27,16,32,22.50
2014,08,27,16,33,22.70
2014,08,27,16,34,22.90
2014,08,27,16,35,23.10
2014,08,27,16,36,23.20
2014,08,27,16,37,23.30
2014,08,27,16,38,23.40
2014,08,27,16,39,23.60
2014,08,27,16,40,23.70
2014,08,27,16,41,23.90
2014,08,27,16,42,24.00
2014,08,27,16,43,24.10
2014,08,27,16,44,24.20
2014,08,27,16,45,24.40
2014,08,27,16,46,24.40
2014,08,27,16,47,24.50
2014,08,27,16,48,24.50
2014,08,27,16,49,24.60
2014,08,27,16,50,24.60
2014,08,27,16,51,24.60
2014,08,27,16,52,24.60
2014,08,27,16,53,24.60
2014,08,27,16,54,24.50
2014,08,27,16,55,24.50
2014,08,27,16,56,24.50
2014,08,27,16,57,24.60
2014,08,27,16,58,24.70
2014,08,27,16,59,24.80
2014,08,27,17,00,24.90
2014,08,27,17,01,25.00
2014,08,27,17,02,25.20
2014,08,27,17,03,25.20
2014,08,27,17,04,25.30
2014,08,27,17,05,25.40
2014,08,27,17,06,25.50
2014,08,27,17,07,25.60
2014,08,27,17,08,25.70
2014,08,27,17,09,25.80
2014,08,27,17,10,25.90
2014,08,27,17,11,26.00
2014,08,27,17,12,26.00
2014,08,27,17,13,26.20
2014,08,27,17,14,26.30
2014,08,27,17,15,26.40
2014,08,27,17,16,26.50
2014,08,27,17,17,26.60
2014,08,27,17,18,26.70
2014,08,27,17,19,26.80